Location: Knowlton
(51.2333°N, 1.2667°E)
Time: 00:12:17
(UTC+00:00)

ZACube-1 - Pass Details

Date: 30 November 2021
Orbit: 582 x 665 km, 97.6° (Epoch: 21 January)

Event Time Altitude Azimuth Distance (km) Brightness Sun altitude
Rises 03:17:07 0° 25° (NNE) 2,984 ? -39.4°
Reaches altitude 10° 03:19:50 10° 41° (NE) 2,079 ? -39.0°
Enters shadow 03:20:06 11° 44° (NE) 1,999 ? -39.0°
